This demonstration page uses our WeatherBlox Daily Observations layout. Learn more.

38.89511, -77.03637

Hourly Observations for April 3, 2017

Temp ( °F °C ) Dew Point ( °F °C ) Humidity (%) Winds ( mph kmh ) Pressure ( in mb ) Visibility ( mi km ) Precip ( " mm )
12:52 am 00:52 Mostly Cloudy 53 11.7 38 3.3 57 57 S 5 7 30.15 1021 10 16.09344 0 0
1:52 am 01:52 Mostly Cloudy 53 11.7 42 5.6 66 66 S 7 11 30.12 1020 10 16.09344 0 0
2:52 am 02:52 Mostly Cloudy 52 11.1 41 5 66 66 SSW 6 9 30.09 1019 10 16.09344 0 0
3:52 am 03:52 Mostly Cloudy 50 10 41 5 71 71 SSE 6 9 30.06 1018 10 16.09344 0 0
4:52 am 04:52 Mostly Cloudy 49 9.4 41 5 74 74 S 5 7 30.09 1019 10 16.09344 0 0
5:52 am 05:52 Partly Cloudy 49 9.4 41 5 74 74 S 6 9 30.09 1019 10 16.09344 0 0
6:52 am 06:52 Mostly Cloudy 49 9.4 43 6.1 80 80 S 9 15 30.09 1019 10 16.09344 0 0
7:52 am 07:52 Cloudy 51 10.6 45 7.2 80 80 S 9 15 30.12 1020 10 16.09344 0 0
8:52 am 08:52 Sunny 55 12.8 46 7.8 72 72 SSW 13 20 30.12 1020 10 16.09344 0 0
9:52 am 09:52 Cloudy 58 14.4 47 8.3 67 67 S 14 22 30.09 1019 10 16.09344 0 0
10:52 am 10:52 Mostly Cloudy 61 16.1 48 8.9 63 63 S 13 20 30.03 1017 10 16.09344 0 0
11:52 am 11:52 Cloudy 63 17.2 48 8.9 58 58 S 14 22 30.03 1017 10 16.09344 0 0
12:52 pm 12:52 Cloudy 64 17.8 48 8.9 56 56 S 12 19 30 1016 10 16.09344 0 0
1:52 pm 13:52 Cloudy 66 18.9 48 8.9 52 52 S 17 28 29.97 1015 10 16.09344 0 0
2:52 pm 14:52 Cloudy 65 18.3 48 8.9 54 54 S 15 24 29.94 1014 10 16.09344 0 0
3:52 pm 15:52 Cloudy 66 18.9 49 9.4 54 54 S 9 15 29.88 1012 10 16.09344 0 0
4:52 pm 16:52 Cloudy 66 18.9 47 8.3 50 50 S 16 26 29.88 1012 10 16.09344 0 0
5:52 pm 17:52 Mostly Cloudy 65 18.3 46 7.8 51 51 S 14 22 29.85 1011 10 16.09344 0 0
6:52 pm 18:52 Cloudy 64 17.8 40 4.4 41 41 SSE 15 24 29.83 1010 10 16.09344 0 0
7:52 pm 19:52 Cloudy 61 16.1 46 7.8 58 58 SSE 9 15 29.83 1010 10 16.09344 0.001 0.001
8:52 pm 20:52 Cloudy with Rain 57 13.9 54 12.2 90 90 SE 6 9 29.8 1009 3 4.828032 0.07 1.778
9:25 pm 21:25 Cloudy with Light Rain 58 14.4 55 12.8 90 90 ESE 6 9 29.77 1008 10 16.09344 0.02 0.508
9:36 pm 21:36 Cloudy with Rain 57 14 55 13 94 94 ESE 8 13 29.74 1007 6 9.656064 0 0
9:52 pm 21:52 Cloudy 58 14.4 55 12.8 90 90 SE 9 15 29.71 1006 10 16.09344 0.04 1.016
10:19 pm 22:19 Cloudy 58 14.4 56 13.3 93 93 S 8 13 29.71 1006 10 16.09344 0 0
10:52 pm 22:52 Cloudy 60 15.6 58 14.4 93 93 S 7 11 29.68 1005 10 16.09344 0 0
11:52 pm 23:52 Cloudy 60 15.6 58 14.4 93 93 S 12 19 29.65 1004 10 16.09344 0 0

Powered by AerisWeather